Time,TemperatureF,DewpointF,PressureIn,WindDirection,WindDirectionDegrees,WindSpeedMPH,WindSpeedGustMPH,Humidity,HourlyPrecipIn,Conditions,Clouds,dailyrainin,SolarRadiationWatts/m^2,SoftwareType,DateUTC
2013-03-08 00:01:00,46.6,42.6,30.78,NNW,346,0.0,0.0,86,0.18,,,0.36,0,Wunderground v.1.15,2013-03-08 08:01:00,
2013-03-08 00:08:00,46.6,42.6,30.78,NNW,346,0.0,0.0,86,0.22,,,0.38,0,Wunderground v.1.15,2013-03-08 08:08:00,
2013-03-08 00:14:00,46.6,42.9,30.78,NNW,346,0.0,0.0,87,0.15,,,0.40,0,Wunderground v.1.15,2013-03-08 08:14:00,
2013-03-08 00:20:00,46.6,42.9,30.78,NNW,346,0.0,0.0,87,0.09,,,0.40,0,Wunderground v.1.15,2013-03-08 08:20:00,
2013-03-08 00:26:00,46.6,42.9,30.78,NNW,346,0.0,0.0,87,0.13,,,0.41,0,Wunderground v.1.15,2013-03-08 08:26:00,
2013-03-08 00:31:00,46.5,42.8,30.78,NNW,346,0.0,1.0,87,0.10,,,0.42,0,Wunderground v.1.15,2013-03-08 08:31:00,
2013-03-08 00:37:00,46.5,42.8,30.78,NNW,346,0.0,1.0,87,0.10,,,0.43,0,Wunderground v.1.15,2013-03-08 08:37:00,
2013-03-08 00:44:00,46.5,42.8,30.78,NNW,346,0.0,0.0,87,0.07,,,0.44,0,Wunderground v.1.15,2013-03-08 08:44:00,
2013-03-08 00:50:00,46.5,42.8,30.78,NNW,346,0.0,0.0,87,0.08,,,0.45,0,Wunderground v.1.15,2013-03-08 08:50:00,
2013-03-08 00:56:00,46.5,42.8,30.78,NNW,346,0.0,0.0,87,0.08,,,0.46,0,Wunderground v.1.15,2013-03-08 08:56:00,
2013-03-08 01:02:00,46.4,42.7,30.78,NNW,346,0.0,0.0,87,0.08,,,0.46,0,Wunderground v.1.15,2013-03-08 09:02:00,
2013-03-08 01:08:00,46.5,42.8,30.78,NNW,346,0.0,0.0,87,0.07,,,0.47,0,Wunderground v.1.15,2013-03-08 09:08:00,
2013-03-08 01:14:00,46.5,42.8,30.78,NNW,346,0.0,0.0,87,0.09,,,0.47,0,Wunderground v.1.15,2013-03-08 09:14:00,
2013-03-08 01:20:00,46.5,42.8,30.78,NNW,346,0.0,0.0,87,0.07,,,0.48,0,Wunderground v.1.15,2013-03-08 09:20:00,
2013-03-08 01:26:00,46.5,42.8,30.77,NNW,335,1.0,2.0,87,0.07,,,0.48,0,Wunderground v.1.15,2013-03-08 09:26:00,
2013-03-08 01:31:00,46.6,43.2,30.77,NNW,333,1.0,1.0,88,0.05,,,0.48,0,Wunderground v.1.15,2013-03-08 09:31:00,
2013-03-08 01:37:00,46.5,43.1,30.77,NNW,333,0.0,1.0,88,0.00,,,0.48,0,Wunderground v.1.15,2013-03-08 09:37:00,
2013-03-08 01:44:00,46.5,42.8,30.77,NNW,333,0.0,0.0,87,0.00,,,0.48,0,Wunderground v.1.15,2013-03-08 09:44:00,
2013-03-08 01:50:00,46.5,42.8,30.77,NNW,333,0.0,0.0,87,0.00,,,0.48,0,Wunderground v.1.15,2013-03-08 09:50:00,
2013-03-08 01:56:00,46.5,43.1,30.77,NNW,333,0.0,0.0,88,0.00,,,0.48,0,Wunderground v.1.15,2013-03-08 09:56:00,
2013-03-08 02:01:00,46.4,43.0,30.76,NNW,333,0.0,0.0,88,0.00,,,0.48,0,Wunderground v.1.15,2013-03-08 10:01:00,
2013-03-08 02:08:00,46.4,43.0,30.76,NNW,333,0.0,0.0,88,0.00,,,0.48,0,Wunderground v.1.15,2013-03-08 10:08:00,
2013-03-08 02:16:00,46.4,43.0,30.76,NNW,333,0.0,0.0,88,0.00,,,0.48,0,Wunderground v.1.15,2013-03-08 10:16:00,
2013-03-08 02:22:00,46.4,43.0,30.76,NNW,333,0.0,0.0,88,0.00,,,0.48,0,Wunderground v.1.15,2013-03-08 10:22:00,
2013-03-08 02:27:00,46.3,42.9,30.76,NNW,333,0.0,0.0,88,0.00,,,0.48,0,Wunderground v.1.15,2013-03-08 10:27:00,
2013-03-08 02:33:00,46.3,42.9,30.76,NNW,333,0.0,0.0,88,0.00,,,0.48,0,Wunderground v.1.15,2013-03-08 10:33:00,
2013-03-08 02:40:00,46.2,42.8,30.76,NNW,333,0.0,0.0,88,0.00,,,0.48,0,Wunderground v.1.15,2013-03-08 10:40:00,
2013-03-08 02:46:00,46.1,42.7,30.75,NNW,333,0.0,0.0,88,0.00,,,0.48,0,Wunderground v.1.15,2013-03-08 10:46:00,
2013-03-08 02:52:00,46.0,42.6,30.75,NNW,333,0.0,0.0,88,0.00,,,0.48,0,Wunderground v.1.15,2013-03-08 10:52:00,
2013-03-08 02:58:00,45.9,42.5,30.75,NNW,333,0.0,0.0,88,0.00,,,0.48,0,Wunderground v.1.15,2013-03-08 10:58:00,
2013-03-08 03:04:00,45.8,42.4,30.75,NNW,333,0.0,0.0,88,0.00,,,0.48,0,Wunderground v.1.15,2013-03-08 11:04:00,
2013-03-08 03:10:00,45.8,42.4,30.75,NNW,333,0.0,0.0,88,0.00,,,0.48,0,Wunderground v.1.15,2013-03-08 11:10:00,
2013-03-08 03:16:00,45.8,42.4,30.75,NNW,333,0.0,1.0,88,0.00,,,0.48,0,Wunderground v.1.15,2013-03-08 11:16:00,
2013-03-08 03:22:00,45.8,42.4,30.75,NNW,333,0.0,0.0,88,0.00,,,0.48,0,Wunderground v.1.15,2013-03-08 11:22:00,
2013-03-08 03:27:00,45.8,42.4,30.75,NNW,333,0.0,0.0,88,0.00,,,0.48,0,Wunderground v.1.15,2013-03-08 11:27:00,
2013-03-08 03:33:00,45.8,42.4,30.75,NNW,333,0.0,0.0,88,0.00,,,0.48,0,Wunderground v.1.15,2013-03-08 11:33:00,
2013-03-08 03:40:00,45.8,42.4,30.75,NNW,333,0.0,0.0,88,0.00,,,0.48,0,Wunderground v.1.15,2013-03-08 11:40:00,
2013-03-08 03:46:00,45.9,42.5,30.75,NNW,333,0.0,0.0,88,0.00,,,0.48,0,Wunderground v.1.15,2013-03-08 11:46:00,
2013-03-08 03:52:00,45.9,42.5,30.75,NNW,333,0.0,0.0,88,0.00,,,0.48,0,Wunderground v.1.15,2013-03-08 11:52:00,
2013-03-08 03:57:00,45.8,42.4,30.75,NNW,333,0.0,0.0,88,0.00,,,0.48,0,Wunderground v.1.15,2013-03-08 11:57:00,
2013-03-08 04:04:00,45.9,42.5,30.75,NNW,333,0.0,0.0,88,0.00,,,0.48,0,Wunderground v.1.15,2013-03-08 12:04:00,
2013-03-08 04:10:00,45.9,42.5,30.75,NNW,333,0.0,0.0,88,0.00,,,0.48,0,Wunderground v.1.15,2013-03-08 12:10:00,
2013-03-08 04:15:00,45.9,42.5,30.75,NNW,333,0.0,0.0,88,0.00,,,0.48,0,Wunderground v.1.15,2013-03-08 12:15:00,
2013-03-08 04:22:00,45.9,42.5,30.75,NNW,333,0.0,0.0,88,0.00,,,0.48,0,Wunderground v.1.15,2013-03-08 12:22:00,
2013-03-08 04:28:00,45.8,42.4,30.75,NNW,333,0.0,1.0,88,0.00,,,0.48,0,Wunderground v.1.15,2013-03-08 12:28:00,
2013-03-08 04:34:00,45.8,42.4,30.75,NNW,333,0.0,0.0,88,0.00,,,0.48,0,Wunderground v.1.15,2013-03-08 12:34:00,
2013-03-08 04:40:00,45.8,42.4,30.75,NNW,333,0.0,0.0,88,0.00,,,0.48,0,Wunderground v.1.15,2013-03-08 12:40:00,
2013-03-08 04:46:00,45.8,42.4,30.75,NNW,333,0.0,0.0,88,0.00,,,0.48,0,Wunderground v.1.15,2013-03-08 12:46:00,
2013-03-08 04:52:00,45.7,42.3,30.76,NNW,333,1.0,1.0,88,0.00,,,0.48,0,Wunderground v.1.15,2013-03-08 12:52:00,
2013-03-08 04:58:00,45.6,42.3,30.75,NNW,333,0.0,1.0,88,0.00,,,0.48,0,Wunderground v.1.15,2013-03-08 12:58:00,
2013-03-08 05:04:00,45.6,42.3,30.76,NNW,333,0.0,1.0,88,0.00,,,0.48,0,Wunderground v.1.15,2013-03-08 13:04:00,
2013-03-08 05:10:00,45.5,42.2,30.76,NNW,331,1.0,1.0,88,0.00,,,0.48,0,Wunderground v.1.15,2013-03-08 13:10:00,
2013-03-08 05:16:00,45.5,42.2,30.76,NNW,331,1.0,1.0,88,0.00,,,0.48,0,Wunderground v.1.15,2013-03-08 13:16:00,
2013-03-08 05:22:00,45.5,42.2,30.76,NNW,330,0.0,3.0,88,0.00,,,0.48,0,Wunderground v.1.15,2013-03-08 13:22:00,
2013-03-08 05:27:00,45.5,42.2,30.76,NNW,330,1.0,4.0,88,0.00,,,0.48,0,Wunderground v.1.15,2013-03-08 13:27:00,
2013-03-08 05:34:00,45.4,42.1,30.76,NNW,330,0.0,1.0,88,0.00,,,0.48,0,Wunderground v.1.15,2013-03-08 13:34:00,
2013-03-08 05:40:00,45.4,42.1,30.76,NNW,330,0.0,1.0,88,0.00,,,0.48,0,Wunderground v.1.15,2013-03-08 13:40:00,
2013-03-08 05:46:00,45.4,42.1,30.76,NNW,330,0.0,1.0,88,0.00,,,0.48,0,Wunderground v.1.15,2013-03-08 13:46:00,
2013-03-08 05:52:00,45.4,42.1,30.76,NNW,330,0.0,0.0,88,0.00,,,0.48,0,Wunderground v.1.15,2013-03-08 13:52:00,
2013-03-08 05:58:00,45.4,42.1,30.77,NNW,330,0.0,0.0,88,0.00,,,0.48,0,Wunderground v.1.15,2013-03-08 13:58:00,
2013-03-08 06:04:00,45.4,42.1,30.76,NNW,330,0.0,0.0,88,0.00,,,0.48,0,Wunderground v.1.15,2013-03-08 14:04:00,
2013-03-08 06:10:00,45.4,42.1,30.77,NNW,330,0.0,0.0,88,0.00,,,0.48,0,Wunderground v.1.15,2013-03-08 14:10:00,
2013-03-08 06:16:00,45.4,42.1,30.77,NNW,330,0.0,2.0,88,0.00,,,0.48,0,Wunderground v.1.15,2013-03-08 14:16:00,
2013-03-08 06:21:00,45.4,42.1,30.77,NNW,330,0.0,0.0,88,0.00,,,0.48,0,Wunderground v.1.15,2013-03-08 14:21:00,
2013-03-08 06:27:00,45.3,43.1,30.77,NNW,330,0.0,0.0,92,0.00,,,0.48,0,Wunderground v.1.15,2013-03-08 14:27:00,
2013-03-08 06:34:00,45.3,42.0,30.77,NNW,330,0.0,0.0,88,0.00,,,0.48,0,Wunderground v.1.15,2013-03-08 14:34:00,
2013-03-08 06:40:00,45.2,41.9,30.77,NNW,330,0.0,0.0,88,0.00,,,0.48,7,Wunderground v.1.15,2013-03-08 14:40:00,
2013-03-08 06:46:00,45.1,41.8,30.77,NNW,330,0.0,0.0,88,0.00,,,0.48,11,Wunderground v.1.15,2013-03-08 14:46:00,
2013-03-08 06:52:00,45.0,41.7,30.78,NNW,330,0.0,0.0,88,0.00,,,0.48,14,Wunderground v.1.15,2013-03-08 14:52:00,
2013-03-08 06:58:00,45.0,41.7,30.78,NNW,330,0.0,0.0,88,0.00,,,0.48,19,Wunderground v.1.15,2013-03-08 14:58:00,
2013-03-08 07:04:00,45.0,41.7,30.78,NNW,330,0.0,0.0,88,0.00,,,0.48,32,Wunderground v.1.15,2013-03-08 15:04:00,
2013-03-08 07:10:00,44.9,41.6,30.78,NNW,330,0.0,0.0,88,0.00,,,0.48,47,Wunderground v.1.15,2013-03-08 15:10:00,
2013-03-08 07:16:00,45.0,41.7,30.78,NNW,330,0.0,0.0,88,0.00,,,0.48,65,Wunderground v.1.15,2013-03-08 15:16:00,
2013-03-08 07:22:00,45.0,41.7,30.78,NNW,330,0.0,0.0,88,0.00,,,0.48,120,Wunderground v.1.15,2013-03-08 15:22:00,
2013-03-08 07:27:00,45.3,42.0,30.78,NNW,330,0.0,1.0,88,0.00,,,0.48,132,Wunderground v.1.15,2013-03-08 15:27:00,
2013-03-08 07:34:00,45.7,42.3,30.78,NNW,330,0.0,0.0,88,0.00,,,0.48,153,Wunderground v.1.15,2013-03-08 15:34:00,
2013-03-08 07:40:00,46.1,42.7,30.78,NNW,330,0.0,0.0,88,0.00,,,0.48,167,Wunderground v.1.15,2013-03-08 15:40:00,
2013-03-08 07:46:00,46.8,43.4,30.78,NNW,330,0.0,0.0,88,0.00,,,0.48,197,Wunderground v.1.15,2013-03-08 15:46:00,
2013-03-08 07:51:00,47.4,44.0,30.79,NNW,330,0.0,1.0,88,0.00,,,0.48,221,Wunderground v.1.15,2013-03-08 15:51:00,
2013-03-08 07:57:00,47.9,44.5,30.79,NNW,330,0.0,1.0,88,0.00,,,0.48,243,Wunderground v.1.15,2013-03-08 15:57:00,
2013-03-08 08:03:00,48.5,44.8,30.79,NNW,330,0.0,0.0,87,0.00,,,0.48,260,Wunderground v.1.15,2013-03-08 16:03:00,
2013-03-08 08:09:00,49.0,45.0,30.79,NW,325,1.0,1.0,86,0.00,,,0.48,281,Wunderground v.1.15,2013-03-08 16:09:00,
2013-03-08 08:15:00,49.4,45.4,30.79,NW,325,0.0,1.0,86,0.00,,,0.48,302,Wunderground v.1.15,2013-03-08 16:15:00,
2013-03-08 08:22:00,50.0,45.4,30.79,NW,325,1.0,1.0,84,0.00,,,0.48,325,Wunderground v.1.15,2013-03-08 16:22:00,
2013-03-08 08:28:00,50.6,45.6,30.79,NW,325,0.0,1.0,83,0.00,,,0.48,348,Wunderground v.1.15,2013-03-08 16:28:00,
2013-03-08 08:36:00,51.2,45.2,30.80,NW,325,1.0,2.0,80,0.00,,,0.48,371,Wunderground v.1.15,2013-03-08 16:36:00,
2013-03-08 08:42:00,51.9,45.3,30.80,NW,325,0.0,0.0,78,0.00,,,0.48,394,Wunderground v.1.15,2013-03-08 16:42:00,
2013-03-08 08:48:00,52.5,45.2,30.80,NW,325,0.0,0.0,76,0.00,,,0.48,411,Wunderground v.1.15,2013-03-08 16:48:00,
2013-03-08 08:54:00,53.0,44.6,30.80,NW,325,0.0,2.0,73,0.00,,,0.48,429,Wunderground v.1.15,2013-03-08 16:54:00,
2013-03-08 09:00:00,53.4,44.2,30.80,NW,325,1.0,1.0,71,0.00,,,0.48,446,Wunderground v.1.15,2013-03-08 17:00:00,
2013-03-08 09:05:00,54.0,44.1,30.81,NW,326,0.0,1.0,69,0.00,,,0.48,452,Wunderground v.1.15,2013-03-08 17:05:00,
2013-03-08 09:12:00,54.3,43.6,30.81,NNW,348,1.0,4.0,67,0.00,,,0.48,489,Wunderground v.1.15,2013-03-08 17:12:00,
2013-03-08 09:18:00,54.6,43.1,30.81,NNE,25,1.0,4.0,65,0.00,,,0.48,510,Wunderground v.1.15,2013-03-08 17:18:00,
2013-03-08 09:24:00,54.9,42.9,30.81,NNE,26,1.0,1.0,64,0.00,,,0.48,527,Wunderground v.1.15,2013-03-08 17:24:00,
2013-03-08 09:30:00,55.4,43.4,30.81,NNE,26,0.0,0.0,64,0.00,,,0.48,545,Wunderground v.1.15,2013-03-08 17:30:00,
2013-03-08 09:36:00,55.9,43.1,30.81,NE,34,1.0,2.0,62,0.00,,,0.48,564,Wunderground v.1.15,2013-03-08 17:36:00,
2013-03-08 09:42:00,56.4,43.1,30.81,NE,51,1.0,2.0,61,0.00,,,0.48,578,Wunderground v.1.15,2013-03-08 17:42:00,
2013-03-08 09:48:00,56.9,43.2,30.81,NE,51,1.0,2.0,60,0.00,,,0.48,591,Wunderground v.1.15,2013-03-08 17:48:00,
2013-03-08 09:54:00,57.7,43.9,30.81,East,84,1.0,5.0,60,0.00,,,0.48,601,Wunderground v.1.15,2013-03-08 17:54:00,
2013-03-08 09:59:00,57.8,43.6,30.81,ENE,60,2.0,2.0,59,0.00,,,0.48,613,Wunderground v.1.15,2013-03-08 17:59:00,
2013-03-08 10:06:00,58.2,43.5,30.81,ENE,60,1.0,5.0,58,0.00,,,0.48,638,Wunderground v.1.15,2013-03-08 18:06:00,
2013-03-08 10:12:00,58.4,43.7,30.81,ENE,60,1.0,2.0,58,0.00,,,0.48,657,Wunderground v.1.15,2013-03-08 18:12:00,
2013-03-08 10:17:00,59.0,43.3,30.81,ENE,67,1.0,2.0,56,0.00,,,0.48,671,Wunderground v.1.15,2013-03-08 18:17:00,
2013-03-08 10:23:00,59.2,43.5,30.81,ENE,64,1.0,3.0,56,0.00,,,0.48,682,Wunderground v.1.15,2013-03-08 18:23:00,
2013-03-08 10:30:00,59.5,42.8,30.81,NE,41,2.0,2.0,54,0.00,,,0.48,705,Wunderground v.1.15,2013-03-08 18:30:00,
2013-03-08 10:36:00,59.4,43.2,30.81,North,5,3.0,3.0,55,0.00,,,0.48,775,Wunderground v.1.15,2013-03-08 18:36:00,
2013-03-08 10:42:00,59.9,44.2,30.81,North,355,2.0,2.0,56,0.00,,,0.48,248,Wunderground v.1.15,2013-03-08 18:42:00,
2013-03-08 10:47:00,59.8,43.6,30.81,NNW,346,2.0,4.0,55,0.00,,,0.48,243,Wunderground v.1.15,2013-03-08 18:47:00,
2013-03-08 10:54:00,59.6,43.9,30.81,NNW,344,2.0,2.0,56,0.00,,,0.48,893,Wunderground v.1.15,2013-03-08 18:54:00,
2013-03-08 11:00:00,59.6,43.9,30.81,WNW,288,3.0,5.0,56,0.00,,,0.48,865,Wunderground v.1.15,2013-03-08 19:00:00,
2013-03-08 11:05:00,60.1,43.9,30.81,West,279,3.0,5.0,55,0.00,,,0.48,861,Wunderground v.1.15,2013-03-08 19:05:00,
2013-03-08 11:12:00,61.0,44.2,30.81,West,276,2.0,3.0,54,0.00,,,0.48,715,Wunderground v.1.15,2013-03-08 19:12:00,
2013-03-08 11:18:00,62.0,43.7,30.81,West,280,2.0,4.0,51,0.00,,,0.48,819,Wunderground v.1.15,2013-03-08 19:18:00,
2013-03-08 11:24:00,61.2,42.9,30.81,NW,315,2.0,3.0,51,0.00,,,0.48,879,Wunderground v.1.15,2013-03-08 19:24:00,
2013-03-08 11:30:00,61.2,42.9,30.81,WNW,294,3.0,5.0,51,0.00,,,0.48,898,Wunderground v.1.15,2013-03-08 19:30:00,
2013-03-08 11:35:00,63.0,44.1,30.81,WNW,284,2.0,5.0,50,0.00,,,0.48,898,Wunderground v.1.15,2013-03-08 19:35:00,
2013-03-08 11:42:00,63.5,43.4,30.81,WSW,257,2.0,4.0,48,0.00,,,0.48,898,Wunderground v.1.15,2013-03-08 19:42:00,
2013-03-08 11:48:00,62.9,42.9,30.81,West,265,3.0,4.0,48,0.00,,,0.48,944,Wunderground v.1.15,2013-03-08 19:48:00,
2013-03-08 11:54:00,62.4,42.4,30.81,West,271,3.0,4.0,48,0.00,,,0.48,921,Wunderground v.1.15,2013-03-08 19:54:00,
2013-03-08 11:59:00,63.0,43.5,30.81,West,265,3.0,3.0,49,0.00,,,0.48,905,Wunderground v.1.15,2013-03-08 19:59:00,
2013-03-08 12:06:00,62.4,43.0,30.81,West,272,3.0,7.0,49,0.00,,,0.48,809,Wunderground v.1.15,2013-03-08 20:06:00,
2013-03-08 12:11:00,62.7,43.3,30.81,SE,144,3.0,5.0,49,0.00,,,0.48,798,Wunderground v.1.15,2013-03-08 20:11:00,
2013-03-08 12:17:00,63.1,43.1,30.81,NNW,342,3.0,5.0,48,0.00,,,0.48,793,Wunderground v.1.15,2013-03-08 20:17:00,
2013-03-08 12:23:00,61.9,40.9,30.81,NE,38,4.0,5.0,46,0.00,,,0.48,791,Wunderground v.1.15,2013-03-08 20:23:00,
2013-03-08 12:30:00,61.6,41.2,30.81,WNW,296,5.0,5.0,47,0.00,,,0.48,796,Wunderground v.1.15,2013-03-08 20:30:00,
2013-03-08 12:36:00,61.2,42.9,30.81,West,263,4.0,5.0,51,0.00,,,0.48,798,Wunderground v.1.15,2013-03-08 20:36:00,
2013-03-08 12:41:00,61.6,41.7,30.81,NW,315,4.0,7.0,48,0.00,,,0.48,791,Wunderground v.1.15,2013-03-08 20:41:00,
2013-03-08 12:48:00,61.8,39.6,30.82,WSW,241,4.0,7.0,44,0.00,,,0.48,796,Wunderground v.1.15,2013-03-08 20:48:00,
2013-03-08 12:54:00,61.7,38.4,30.81,NNE,19,5.0,5.0,42,0.00,,,0.48,795,Wunderground v.1.15,2013-03-08 20:54:00,
2013-03-08 12:59:00,62.0,38.6,30.81,NNW,329,5.0,6.0,42,0.00,,,0.48,782,Wunderground v.1.15,2013-03-08 20:59:00,
2013-03-08 13:06:00,61.7,39.6,30.81,NNW,341,7.0,13.0,44,0.00,,,0.48,773,Wunderground v.1.15,2013-03-08 21:06:00,
2013-03-08 13:12:00,61.5,41.1,30.81,West,280,6.0,7.0,47,0.00,,,0.48,770,Wunderground v.1.15,2013-03-08 21:12:00,
2013-03-08 13:18:00,61.5,41.6,30.81,SW,223,4.0,7.0,48,0.00,,,0.48,770,Wunderground v.1.15,2013-03-08 21:18:00,
2013-03-08 13:24:00,62.2,41.7,30.81,West,264,3.0,5.0,47,0.00,,,0.48,765,Wunderground v.1.15,2013-03-08 21:24:00,
2013-03-08 13:30:00,61.5,41.1,30.81,West,278,4.0,5.0,47,0.00,,,0.48,754,Wunderground v.1.15,2013-03-08 21:30:00,
2013-03-08 13:35:00,60.5,40.7,30.81,SSW,196,6.0,6.0,48,0.00,,,0.48,742,Wunderground v.1.15,2013-03-08 21:35:00,
2013-03-08 13:42:00,60.3,41.0,30.81,SSE,162,6.0,6.0,49,0.00,,,0.48,738,Wunderground v.1.15,2013-03-08 21:42:00,
2013-03-08 13:48:00,60.9,42.1,30.81,South,179,4.0,6.0,50,0.00,,,0.48,729,Wunderground v.1.15,2013-03-08 21:48:00,
2013-03-08 13:56:00,60.4,42.7,30.81,West,279,4.0,10.0,52,0.00,,,0.48,717,Wunderground v.1.15,2013-03-08 21:56:00,
2013-03-08 14:01:00,59.8,42.1,30.81,WSW,244,5.0,6.0,52,0.00,,,0.48,708,Wunderground v.1.15,2013-03-08 22:01:00,
2013-03-08 14:08:00,59.4,41.3,30.81,SSW,198,6.0,13.0,51,0.00,,,0.48,698,Wunderground v.1.15,2013-03-08 22:08:00,
2013-03-08 14:13:00,58.6,41.0,30.81,South,170,7.0,9.0,52,0.00,,,0.48,691,Wunderground v.1.15,2013-03-08 22:13:00,
2013-03-08 14:20:00,57.8,40.8,30.82,West,260,7.0,7.0,53,0.00,,,0.48,684,Wunderground v.1.15,2013-03-08 22:20:00,
2013-03-08 14:26:00,57.5,41.4,30.82,WSW,249,7.0,9.0,55,0.00,,,0.48,675,Wunderground v.1.15,2013-03-08 22:26:00,
2013-03-08 14:32:00,57.2,41.6,30.82,West,271,7.0,8.0,56,0.00,,,0.48,663,Wunderground v.1.15,2013-03-08 22:32:00,
2013-03-08 14:38:00,57.6,42.0,30.82,West,281,5.0,8.0,56,0.00,,,0.48,659,Wunderground v.1.15,2013-03-08 22:38:00,
2013-03-08 14:44:00,57.8,42.2,30.82,WSW,244,6.0,17.0,56,0.00,,,0.48,517,Wunderground v.1.15,2013-03-08 22:44:00,
2013-03-08 14:50:00,57.2,41.6,30.82,SW,221,6.0,6.0,56,0.00,,,0.48,413,Wunderground v.1.15,2013-03-08 22:50:00,
2013-03-08 14:55:00,57.0,41.9,30.83,West,269,4.0,9.0,57,0.00,,,0.48,615,Wunderground v.1.15,2013-03-08 22:55:00,
2013-03-08 15:02:00,57.0,41.4,30.83,WSW,238,5.0,6.0,56,0.00,,,0.48,568,Wunderground v.1.15,2013-03-08 23:02:00,
2013-03-08 15:07:00,56.7,41.6,30.83,West,277,5.0,6.0,57,0.00,,,0.48,508,Wunderground v.1.15,2013-03-08 23:07:00,
2013-03-08 15:14:00,56.6,41.5,30.84,North,11,5.0,6.0,57,0.00,,,0.48,496,Wunderground v.1.15,2013-03-08 23:14:00,
2013-03-08 15:20:00,55.9,41.3,30.84,WSW,246,7.0,7.0,58,0.00,,,0.48,529,Wunderground v.1.15,2013-03-08 23:20:00,
2013-03-08 15:26:00,55.8,41.2,30.84,SE,142,7.0,7.0,58,0.00,,,0.48,543,Wunderground v.1.15,2013-03-08 23:26:00,
2013-03-08 15:31:00,55.8,41.2,30.84,West,267,6.0,6.0,58,0.00,,,0.48,501,Wunderground v.1.15,2013-03-08 23:31:00,
2013-03-08 15:37:00,55.8,41.7,30.84,NW,311,6.0,7.0,59,0.00,,,0.48,471,Wunderground v.1.15,2013-03-08 23:37:00,
2013-03-08 15:43:00,55.7,41.6,30.84,NE,41,4.0,7.0,59,0.00,,,0.48,357,Wunderground v.1.15,2013-03-08 23:43:00,
2013-03-08 15:50:00,55.4,41.7,30.85,NNW,346,5.0,6.0,60,0.00,,,0.48,369,Wunderground v.1.15,2013-03-08 23:50:00,
2013-03-08 15:56:00,55.0,41.4,30.85,West,269,5.0,7.0,60,0.00,,,0.48,304,Wunderground v.1.15,2013-03-08 23:56:00,
2013-03-08 16:02:00,55.0,41.4,30.85,SSW,210,4.0,5.0,60,0.00,,,0.48,353,Wunderground v.1.15,2013-03-09 00:02:00,
2013-03-08 16:08:00,55.2,41.5,30.85,WNW,290,3.0,6.0,60,0.00,,,0.48,297,Wunderground v.1.15,2013-03-09 00:08:00,
2013-03-08 16:14:00,55.2,41.1,30.85,NW,307,3.0,13.0,59,0.00,,,0.48,262,Wunderground v.1.15,2013-03-09 00:14:00,
2013-03-08 16:20:00,55.0,40.9,30.85,WNW,292,4.0,5.0,59,0.00,,,0.48,357,Wunderground v.1.15,2013-03-09 00:20:00,
2013-03-08 16:25:00,54.7,40.6,30.85,SW,225,4.0,6.0,59,0.00,,,0.48,359,Wunderground v.1.15,2013-03-09 00:25:00,
2013-03-08 16:32:00,54.6,41.0,30.85,WSW,250,4.0,6.0,60,0.00,,,0.48,309,Wunderground v.1.15,2013-03-09 00:32:00,
2013-03-08 16:38:00,54.2,40.6,30.85,WSW,244,5.0,6.0,60,0.00,,,0.48,276,Wunderground v.1.15,2013-03-09 00:38:00,
2013-03-08 16:44:00,53.8,40.7,30.86,WNW,293,5.0,8.0,61,0.00,,,0.48,243,Wunderground v.1.15,2013-03-09 00:44:00,
2013-03-08 16:50:00,53.7,40.6,30.85,West,267,3.0,3.0,61,0.00,,,0.48,213,Wunderground v.1.15,2013-03-09 00:50:00,
2013-03-08 16:56:00,53.8,40.7,30.86,NNW,342,2.0,6.0,61,0.00,,,0.48,186,Wunderground v.1.15,2013-03-09 00:56:00,
2013-03-08 17:01:00,53.7,40.6,30.86,SSW,209,2.0,2.0,61,0.00,,,0.48,167,Wunderground v.1.15,2013-03-09 01:01:00,
2013-03-08 17:08:00,53.4,40.7,30.86,West,266,3.0,3.0,62,0.00,,,0.48,139,Wunderground v.1.15,2013-03-09 01:08:00,
2013-03-08 17:14:00,53.1,40.4,30.87,West,261,3.0,4.0,62,0.00,,,0.48,120,Wunderground v.1.15,2013-03-09 01:14:00,
2013-03-08 17:19:00,52.7,40.5,30.87,West,274,3.0,3.0,63,0.00,,,0.48,102,Wunderground v.1.15,2013-03-09 01:19:00,
2013-03-08 17:25:00,52.4,40.2,30.87,WSW,255,3.0,3.0,63,0.00,,,0.48,79,Wunderground v.1.15,2013-03-09 01:25:00,
2013-03-08 17:32:00,52.2,40.4,30.87,WSW,254,2.0,3.0,64,0.00,,,0.48,32,Wunderground v.1.15,2013-03-09 01:32:00,
2013-03-08 17:38:00,51.8,40.0,30.88,West,280,1.0,4.0,64,0.00,,,0.48,26,Wunderground v.1.15,2013-03-09 01:38:00,
2013-03-08 17:46:00,51.4,40.0,30.88,West,281,1.0,2.0,65,0.00,,,0.48,19,Wunderground v.1.15,2013-03-09 01:46:00,
2013-03-08 17:52:00,51.0,39.6,30.89,West,281,1.0,1.0,65,0.00,,,0.48,16,Wunderground v.1.15,2013-03-09 01:52:00,
2013-03-08 17:58:00,50.8,39.8,30.89,WNW,283,0.0,1.0,66,0.00,,,0.48,12,Wunderground v.1.15,2013-03-09 01:58:00,
2013-03-08 18:03:00,50.6,40.0,30.90,West,281,0.0,1.0,67,0.00,,,0.48,9,Wunderground v.1.15,2013-03-09 02:03:00,
2013-03-08 18:09:00,50.3,39.8,30.90,WNW,283,0.0,2.0,67,0.00,,,0.48,5,Wunderground v.1.15,2013-03-09 02:09:00,
2013-03-08 18:16:00,50.1,39.9,30.90,WNW,288,0.0,2.0,68,0.00,,,0.48,0,Wunderground v.1.15,2013-03-09 02:16:00,
2013-03-08 18:21:00,49.8,39.7,30.91,WNW,289,0.0,2.0,68,0.00,,,0.48,0,Wunderground v.1.15,2013-03-09 02:21:00,
2013-03-08 18:28:00,49.6,39.8,30.91,WNW,288,0.0,2.0,69,0.00,,,0.48,0,Wunderground v.1.15,2013-03-09 02:28:00,
2013-03-08 18:36:00,49.3,39.6,30.91,WNW,288,0.0,0.0,69,0.00,,,0.48,0,Wunderground v.1.15,2013-03-09 02:36:00,
2013-03-08 18:42:00,49.1,39.7,30.92,WNW,289,0.0,1.0,70,0.00,,,0.48,0,Wunderground v.1.15,2013-03-09 02:42:00,
2013-03-08 18:48:00,48.9,39.5,30.91,WNW,288,0.0,1.0,70,0.00,,,0.48,0,Wunderground v.1.15,2013-03-09 02:48:00,
2013-03-08 18:54:00,48.7,39.4,30.92,WNW,288,0.0,0.0,70,0.00,,,0.48,0,Wunderground v.1.15,2013-03-09 02:54:00,
2013-03-08 18:59:00,48.5,39.2,30.92,WNW,288,0.0,0.0,70,0.00,,,0.48,0,Wunderground v.1.15,2013-03-09 02:59:00,
2013-03-08 19:06:00,48.3,39.3,30.92,WNW,288,0.0,0.0,71,0.00,,,0.48,0,Wunderground v.1.15,2013-03-09 03:06:00,
2013-03-08 19:12:00,48.1,39.1,30.92,WNW,288,0.0,0.0,71,0.00,,,0.00,0,Wunderground v.1.15,2013-03-09 03:12:00,
2013-03-08 19:17:00,47.9,38.9,30.93,WNW,288,0.0,0.0,71,0.00,,,0.00,0,Wunderground v.1.15,2013-03-09 03:17:00,
2013-03-08 19:23:00,47.7,39.1,30.93,WNW,288,0.0,0.0,72,0.00,,,0.00,0,Wunderground v.1.15,2013-03-09 03:23:00,
2013-03-08 19:30:00,47.5,38.9,30.93,WNW,288,0.0,0.0,72,0.00,,,0.00,0,Wunderground v.1.15,2013-03-09 03:30:00,
2013-03-08 19:36:00,47.4,39.2,30.94,WNW,288,0.0,0.0,73,0.00,,,0.00,0,Wunderground v.1.15,2013-03-09 03:36:00,
2013-03-08 19:42:00,47.3,39.1,30.94,WNW,288,0.0,0.0,73,0.00,,,0.00,0,Wunderground v.1.15,2013-03-09 03:42:00,
2013-03-08 19:48:00,47.2,39.0,30.94,WNW,288,0.0,0.0,73,0.00,,,0.00,0,Wunderground v.1.15,2013-03-09 03:48:00,
2013-03-08 19:53:00,47.0,39.1,30.94,WNW,288,0.0,0.0,74,0.00,,,0.00,0,Wunderground v.1.15,2013-03-09 03:53:00,
2013-03-08 19:59:00,47.0,39.1,30.95,WNW,288,0.0,0.0,74,0.00,,,0.00,0,Wunderground v.1.15,2013-03-09 03:59:00,
2013-03-08 20:06:00,46.9,39.0,30.95,WNW,288,0.0,0.0,74,0.00,,,0.00,0,Wunderground v.1.15,2013-03-09 04:06:00,
2013-03-08 20:11:00,46.7,38.9,30.95,WNW,288,0.0,0.0,74,0.00,,,0.00,0,Wunderground v.1.15,2013-03-09 04:11:00,
2013-03-08 20:17:00,46.5,39.0,30.96,WNW,288,0.0,0.0,75,0.00,,,0.00,0,Wunderground v.1.15,2013-03-09 04:17:00,
2013-03-08 20:23:00,46.3,38.8,30.96,WNW,288,0.0,0.0,75,0.00,,,0.00,0,Wunderground v.1.15,2013-03-09 04:23:00,
2013-03-08 20:30:00,46.1,38.6,30.96,WNW,288,0.0,0.0,75,0.00,,,0.00,0,Wunderground v.1.15,2013-03-09 04:30:00,
2013-03-08 20:36:00,45.9,38.4,30.96,WNW,288,0.0,0.0,75,0.00,,,0.00,0,Wunderground v.1.15,2013-03-09 04:36:00,
2013-03-08 20:42:00,45.8,38.7,30.96,WNW,288,0.0,2.0,76,0.00,,,0.00,0,Wunderground v.1.15,2013-03-09 04:42:00,
2013-03-08 20:47:00,45.7,38.6,30.96,WNW,288,0.0,2.0,76,0.00,,,0.00,0,Wunderground v.1.15,2013-03-09 04:47:00,
2013-03-08 20:53:00,45.6,38.8,30.97,WNW,288,0.0,0.0,77,0.00,,,0.00,0,Wunderground v.1.15,2013-03-09 04:53:00,
2013-03-08 20:59:00,45.5,38.7,30.97,WNW,288,0.0,0.0,77,0.00,,,0.00,0,Wunderground v.1.15,2013-03-09 04:59:00,
2013-03-08 21:02:00,45.5,38.7,30.97,WNW,288,0.0,0.0,77,0.00,,,0.00,0,Wunderground v.1.15,2013-03-09 05:02:00,
2013-03-08 21:04:00,45.4,38.6,30.97,WNW,288,0.0,0.0,77,0.00,,,0.00,0,Wunderground v.1.15,2013-03-09 05:04:00,
2013-03-08 21:07:00,45.4,38.6,30.97,WNW,288,0.0,0.0,77,0.00,,,0.00,0,Wunderground v.1.15,2013-03-09 05:07:00,
2013-03-08 21:09:00,45.3,38.5,30.97,WNW,288,0.0,0.0,77,0.00,,,0.00,0,Wunderground v.1.15,2013-03-09 05:09:00,
2013-03-08 21:15:00,45.1,38.3,30.97,WNW,288,0.0,0.0,77,0.00,,,0.00,0,Wunderground v.1.15,2013-03-09 05:15:00,
2013-03-08 21:22:00,45.0,38.6,30.97,WNW,288,0.0,0.0,78,0.00,,,0.00,0,Wunderground v.1.15,2013-03-09 05:22:00,
2013-03-08 21:28:00,44.9,38.5,30.98,WNW,288,0.0,0.0,78,0.00,,,0.00,0,Wunderground v.1.15,2013-03-09 05:28:00,
2013-03-08 21:34:00,44.7,38.3,30.98,WNW,288,0.0,0.0,78,0.00,,,0.00,0,Wunderground v.1.15,2013-03-09 05:34:00,
2013-03-08 21:40:00,44.6,38.2,30.98,WNW,287,0.0,0.0,78,0.00,,,0.00,0,Wunderground v.1.15,2013-03-09 05:40:00,
2013-03-08 21:45:00,44.5,38.1,30.98,WNW,288,0.0,0.0,78,0.00,,,0.00,0,Wunderground v.1.15,2013-03-09 05:45:00,
2013-03-08 21:51:00,44.5,38.4,30.99,WNW,288,0.0,0.0,79,0.00,,,0.00,0,Wunderground v.1.15,2013-03-09 05:51:00,
2013-03-08 21:57:00,44.5,38.4,30.98,WNW,288,0.0,0.0,79,0.00,,,0.00,0,Wunderground v.1.15,2013-03-09 05:57:00,
2013-03-08 22:04:00,44.5,38.4,30.98,WNW,288,0.0,0.0,79,0.00,,,0.00,0,Wunderground v.1.15,2013-03-09 06:04:00,
2013-03-08 22:09:00,44.5,38.4,30.98,WNW,288,0.0,0.0,79,0.00,,,0.00,0,Wunderground v.1.15,2013-03-09 06:09:00,
2013-03-08 22:15:00,44.6,38.8,30.98,WNW,288,0.0,1.0,80,0.00,,,0.00,0,Wunderground v.1.15,2013-03-09 06:15:00,
2013-03-08 22:22:00,44.6,38.8,30.99,WNW,288,0.0,0.0,80,0.00,,,0.00,0,Wunderground v.1.15,2013-03-09 06:22:00,
2013-03-08 22:28:00,44.6,38.8,30.99,WNW,288,0.0,0.0,80,0.00,,,0.00,0,Wunderground v.1.15,2013-03-09 06:28:00,
2013-03-08 22:34:00,44.7,38.9,30.99,WNW,287,0.0,0.0,80,0.00,,,0.00,0,Wunderground v.1.15,2013-03-09 06:34:00,
2013-03-08 22:39:00,44.7,38.9,30.98,WNW,288,0.0,2.0,80,0.00,,,0.00,0,Wunderground v.1.15,2013-03-09 06:39:00,
2013-03-08 22:45:00,44.9,39.1,30.99,WNW,288,0.0,2.0,80,0.00,,,0.00,0,Wunderground v.1.15,2013-03-09 06:45:00,
2013-03-08 22:52:00,45.1,39.3,30.99,WNW,287,0.0,0.0,80,0.00,,,0.00,0,Wunderground v.1.15,2013-03-09 06:52:00,
2013-03-08 22:58:00,45.4,39.6,30.99,WNW,287,0.0,2.0,80,0.00,,,0.00,0,Wunderground v.1.15,2013-03-09 06:58:00,
2013-03-08 23:04:00,45.5,39.7,30.99,WNW,287,0.0,0.0,80,0.00,,,0.00,0,Wunderground v.1.15,2013-03-09 07:04:00,
2013-03-08 23:10:00,45.5,39.7,30.99,WNW,287,0.0,1.0,80,0.00,,,0.00,0,Wunderground v.1.15,2013-03-09 07:10:00,
2013-03-08 23:16:00,45.6,39.8,30.99,WNW,288,0.0,1.0,80,0.00,,,0.00,0,Wunderground v.1.15,2013-03-09 07:16:00,
2013-03-08 23:22:00,45.5,39.7,31.00,WNW,287,0.0,0.0,80,0.00,,,0.00,0,Wunderground v.1.15,2013-03-09 07:22:00,
2013-03-08 23:27:00,45.4,39.6,31.00,WNW,288,0.0,0.0,80,0.00,,,0.00,0,Wunderground v.1.15,2013-03-09 07:27:00,
2013-03-08 23:36:00,45.1,39.0,31.00,WNW,288,0.0,0.0,79,0.00,,,0.00,0,Wunderground v.1.15,2013-03-09 07:36:00,
2013-03-08 23:42:00,45.0,38.9,31.00,WNW,288,0.0,0.0,79,0.00,,,0.00,0,Wunderground v.1.15,2013-03-09 07:42:00,
2013-03-08 23:48:00,45.0,39.2,31.00,WNW,288,0.0,1.0,80,0.00,,,0.00,0,Wunderground v.1.15,2013-03-09 07:48:00,
2013-03-08 23:53:00,45.0,39.2,31.00,WNW,288,0.0,0.0,80,0.00,,,0.00,0,Wunderground v.1.15,2013-03-09 07:53:00,
2013-03-08 23:59:00,45.1,39.3,31.00,WNW,288,0.0,0.0,80,0.00,,,0.00,0,Wunderground v.1.15,2013-03-09 07:59:00,